www.pogodaiklimat.ru
ПОГОДА в Камышине
Время
(UTC), дата
15 28.05
18 28.05
21 28.05
00 29.05
03 29.05
06 29.05
09 29.05
12 29.05
15 29.05
18 29.05
21 29.05
00 30.05
03 30.05
06 30.05
09 30.05
12 30.05
15 30.05
18 30.05
21 30.05
00 31.05
03 31.05
06 31.05
09 31.05
12 31.05
15 31.05
18 31.05
21 31.05
00 1.06
03 1.06
06 1.06
09 1.06
12 1.06
15 1.06
18 1.06
21 1.06
00 2.06
03 2.06
06 2.06
09 2.06
12 2.06
15 2.06
18 2.06
21 2.06
00 3.06
03 3.06
06 3.06
09 3.06
12 3.06
15 3.06
18 3.06
21 3.06
00 4.06
03 4.06
06 4.06
09 4.06
12 4.06
Ветер
(напр.,м/с)
Видим. Явления Облачность Т
(С)
Тd
(С)
f
(%)
Тe
(С)
Тes
(С)
Комфортность P
(гПа)
Po
(гПа)
Тmin
(С)
Tmax
(С)
R
(мм)
R24
(мм)
S
(см)
СВ 4 20 км ясно +25.5 +10.5 39 +26 +28 жарко 1018.4 1004.2 +26.7
СВ 3 20 км ясно +20.7 +11.7 56 +23 +23 комфорт 1019.3 1004.9
СВ 4 20 км ясно +17.9 +9.1 56 +18 +18 тепло 1019.7 1005.2
СВ 6 20 км ясно +16.1 +7.7 57 +15 +15 тепло 1019.3 1004.7
СВ 5 10 км ясно +15.6 +8.0 61 +14 +15 тепло 1020.0 1005.3 +14.9
В 5 20 км ясно +20.3 +9.8 51 +22 +28 комфорт 1018.4 1004.0
СВ 6
{10}
20 км ясно +24.3 +8.8 37 +25 +32 комфорт 1016.2 1002.0
В 7-11
{11}
20 км 4/0
[Ci sp]
+28.6 +6.6 25 +28 +31 жарко 1013.5 999.6
В 6
{12}
20 км 4/0
[Ci]
+27.3 +5.5 25 +26 +27 жарко 1011.6 997.6 +29.3
СВ 5 20 км 4/0
[Ac trans]
+21.7 +6.9 38 +22 +22 комфорт 1011.5 997.2
СВ 5 20 км 4/0
[Ac trans]
+19.6 +5.1 39 +20 +20 тепло 1011.0 996.7
СВ 6 20 км 3/0
[Ac trans]
+17.8 +5.6 45 +17 +17 тепло 1009.9 995.5
СВ 6 20 км 4/0
[Ac trans]
+17.5 +7.3 51 +17 +17 по сезону 1008.6 994.2 +16.7
В 2
{10}
20 км 9/0
[Ac und]
+21.2 +11.5 54 +23 +27 комфорт 1008.7 994.5
СЗ 5-10
{14}
20 км 9/0
[Ac lent]
+21.0 +12.5 58 +23 +26 комфорт 1009.6 995.4
З 7-10
{12}
20 км 4/1 1000 м
[Cu hum Ac trans Ci sp]
+24.0 +12.2 48 +26 +28 жарко 1010.2 996.1
З 8-12
{14}
20 км ясно +22.0 +9.5 45 +24 +24 комфорт 1011.3 997.1 +24.3
З 4
{12}
20 км ясно +17.0 +9.7 62 +17 +17 прохладно 1013.1 998.6
З 5 20 км ясно +14.9 +9.8 72 +13 +13 прохладно 1014.1 999.5
З 8-11
{12}
20 км ясно +15.1 +7.0 58 +13 +13 прохладно 1014.2 999.6
З 7-11
{11}
20 км ясно +14.8 +8.4 65 +13 +14 прохладно 1014.2 999.5 +13.9
З 7-10
{11}
10 км 4/1 600 м
[Cu hum Ci fib]
+19.5 +8.4 49 +20 +23 по сезону 1013.9 999.6
З 8-13
{13}
20 км 6/6 1000 м
[Cu med, cong]
+22.0 +6.7 37 +23 +24 комфорт 1013.3 999.0
З 8-13
{15}
20 км 5/5 1000 м
[Cu med, cong]
+22.7 +5.5 33 +23 +24 комфорт 1012.6 998.4
З 5
{13}
20 км 4/4 1000 м
[Cu med, cong]
+21.5 +5.7 36 +22 +23 комфорт 1012.0 997.7 +23.4
З 4
{12}
20 км 1/1 600 м
[Sc diur, vesp]
+15.6 +7.6 59 +15 +15 холодно 1013.1 998.5
ЮЗ 3 20 км ясно +13.1 +7.5 69 +12 +12 холодно 1013.2 998.5
З 4 20 км ясно +12.4 +8.2 76 +11 +11 прохладно 1012.7 997.9
З 4 10 км 3/0
[Ci sp]
+15.4 +9.3 67 +14 +16 прохладно 1013.3 998.7 +12.1
ЮЗ 2 20 км 3/0
[Ci fib]
+21.3 +8.4 44 +22 +33 комфорт 1013.3 999.1
Ю 5 20 км 6/5 1000 м
[Cu med, cong Ci fib]
+23.6 +7.6 36 +24 +28 комфорт 1013.1 998.9
Ю 4
{10}
20 км 9/3 1000 м
[Cu med, cong Ac trans Ci fib]
+23.7 +7.7 36 +24 +27 комфорт 1012.2 998.0
ЮЗ 4
{11}
10 км осадки на расстоянии 10/4 1000 м
[Cb calv Ac As]
+19.6 +9.3 51 +21 +21 комфорт 1012.2 997.9 +23.8
Ю 6
{10}
10 км в посл. час ливневой дождь 10/8 300 м
[Sc Ac As]
+14.7 +12.4 86 +13 +13 холодно 1014.3 999.7
ЮВ 2 10 км {ливн. осадки} 10/10 300 м
[Sc]
+14.4 +12.8 90 +14 +14 прохладно 1012.9 998.3
ЮВ 2 4000 м слаб. ливневой дождь 10/10 300 м
[Cb calv]
+14.4 +13.2 92 +14 +14 по сезону 1012.0 997.5
ЮВ 1 2000 м слаб. ливневой дождь 10/10 200 м
[Cb calv]
+14.7 +13.7 94 +15 +15 по сезону 1012.2 997.6 +14.3 5
В 1 10 км {ливн. осадки} 4/4 600 м
[Sc]
+18.6 +15.0 80 +21 +29 комфорт 1012.5 998.1
В 3 20 км 6/4 600 м
[Cu med, cong Ci sp]
+21.5 +14.2 63 +24 +33 комфорт 1011.9 997.7
СВ 4 20 км 4/1 600 м
[Cu hum Ci sp]
+23.7 +13.4 52 +26 +32 жарко 1010.6 996.5
В 4 20 км 9/0
[Ac trans Ci sp]
+22.2 +12.5 54 +25 +26 комфорт 1010.3 996.1 +24.0
СВ 5 20 км 9/0
[Ac lent]
+20.3 +12.4 60 +22 +22 комфорт 1008.7 994.5
В 4 4000 м слаб. ливневой дождь 10/8 600 м
[Cb calv Ac As]
+17.9 +13.2 74 +18 +18 тепло 1009.2 994.8
С 3 10 км {ливн. осадки} 10/10 600 м
[Sc]
+17.1 +13.0 77 +17 +17 тепло 1008.1 993.7
СВ 6-10
{10}
10 км гроза, ливневой дождь 10/8 600 м
[Cb cap Ac lent]
+18.6 +11.5 63 +19 +19 тепло 1005.9 991.6 +16.7 3
СВ 9-13
{16}
20 км осадки на расстоянии {гроза, ливн. осадки} 8/8 600 м
[Cb calv]
+19.0 +12.1 64 +19 +19 по сезону 1005.3 991.0
СВ 6
{14}
20 км осадки на расстоянии {ливн. осадки} 9/6 600 м
[Cb calv Ac trans Ci fib]
+20.1 +13.0 64 +22 +23 комфорт 1004.2 990.0
В 9-13
{14}
20 км {ливн. осадки} 8/3 1000 м
[Cu med, cong Ac trans Ci fib]
+27.2 +9.9 34 +28 +28 жарко 1002.2 988.4
В 4
{15}
20 км 9/0
[Ac cuf Ci sp]
+26.3 +9.7 35 +27 +28 жарко 1001.8 987.9 +28.0 3
З 7-10
{11}
20 км 4/0
[Ci sp]
+20.1 +15.4 74 +22 +22 комфорт 1003.6 989.4
З 9-13
{13}
20 км 4/0
[Ci fib]
+16.4 +13.4 82 +15 +15 по сезону 1004.8 990.4
З 6
{15}
10 км 10/3 300 м
[St Ac As]
+14.9 +12.8 87 +13 +13 по сезону 1005.9 991.4
З 4
{10}
20 км 10/0
[Ac cuf]
+15.3 +13.1 87 +14 +15 прохладно 1008.0 993.5 +14.8
З 5 20 км 9/3 600 м
[Sc Ac trans Ci sp]
+18.0 +12.3 69 +18 +20 по сезону 1008.8 994.4
З 5
{10}
20 км 4/4
[Cu med, cong]
+23.6 +11.4 46 +25 +31 комфорт 1009.8 995.7
ЮЗ 2 20 км 4/4 1000 м
[Cu med, cong]
+24.2 +10.3 41 +25 +32 комфорт 1010.4 996.3
Местоположение метеостанции Камышин (Волгоградская область, Россия): широта 50.07 долгота 45.37 высота над уровнем моря 119 м.
В архиве по умолчанию представлена погода в Камышине за последнюю неделю. Архивные данные за месяц целиком и за предыдущие месяцы, начиная с января 2011 года, Вы можете получить, выбрав интересующий диапазон дат из раскрывающегося списка и нажав кнопку "Найти!".
*Определитесь, кто Вы:
Внимание! Время в таблицах - всемирное. Для получения местного времени необходимо прибавить поправку, которая равна 3 ч.
Смотрите также архив погоды в соседних городах и на ближайших метеорологических станциях:
Партнеры нашего сайта:      
Пояснения к столбцам:
  • Ветер - указаны скорость ветра в м/с - средняя за 10 мин, порывы в срок и между сроками (в фигурных скобках) и направление, откуда дует ветер: С - северный,
  • СВ - северо-восточный, В - восточный, ЮВ - юго-восточный, Ю - южный, ЮЗ - юго-западный, З - западный, СЗ - северо-западный.
  • Видимость - горизонтальная дальность видимости в метрах или километрах. При видимости от 1 до 10 км при отсутствии осадков обычно наблюдается дымка, при ухудшении видимости до 1 км и менее - туман. В сухую погоду видимость может ухудшаться дымом, пылью или мглою.
  • Явления - указаны атмосферные явления, наблюдавшиеся в срок или в последний час перед сроком; фигурными скобками обозначены явления, наблюдавшиеся между сроками (за 1-3 часа до срока); квадратными скобками обозначены град или гололедные отложения с указанием их диаметра в мм.
  • Облачность - указаны через наклонную черту общая и нижняя облачность в баллах и высота нижней границы облаков в метрах; квадратными скобками обозначены формы облаков: Ci - перистые, Cs - перисто-слоистые, Cc - перисто-кучевые, Ac - высококучевые, As - высокослоистые, Sc - слоисто-кучевые, Ns - слоисто-дождевые, Cu - кучевые, Cb - кучево-дождевые. Подробнее классификацию облаков см. в Атласе облаков (PDF).
  • T - Температура воздуха - температура, измеренная на высоте 2 м над землей.
  • Td - Температура точки росы - температура, при понижении до которой содержащийся в воздухе водяной пар достигнет насыщения.
  • f - Относительная влажность воздуха - влажноcть воздуха, измеренная на высоте 2 м над землей.
  • Te - Эффективная температура - температура, которую ощущает одетый по сезону человек в тени. Характеристика душности погоды. При расчете учитывается влияние влажности воздуха и скорости ветра на теплоощущения человека.
  • Tes - Эффективная температура на солнце - температура, которую ощущает человек, с поправкой на солнечный нагрев. Характеристика знойности погоды. Зависит от высоты солнца над горизонтом, облачности и скорости ветра. Ночью, в пасмурную погоду, а также при ветре 12 м/с и более поправка равна нулю.
  • P - Атмосферное давление - приведенное к уровню моря атмосферное давление.
  • Po - Атмосферное давление - измеренное на уровне метеостанции атмосферное давление.
  • Tmin - Минимальная температура - минимум температуры воздуха на высоте 2 м над землей.
  • Tmax - Максимальная температура - максимум температуры воздуха на высоте 2 м над землей.
  • R - Количество осадков - Количество выпавших осадков за период времени, мм. При наведении курсора мыши на число - период времени, за который выпало указанное количество осадков.
  • R24 - Количество осадков - Количество выпавших осадков за 24 часа, мм.
  • S - Снежный покров - Высота снежного покрова, см. При наведении курсора мыши на число - состояние снежного покрова и степень покрытия местности в баллах.